Location: La Silve
(44.2414°N, 5.8889°E)
Time: 08:19:29
(UTC+00:00)

Cosmos 44 Rocket - Pass Details

Date: 01 December 2020
Orbit: 638 x 751 km, 65.1° (Epoch: 25 January)

Event Time Altitude Azimuth Distance (km) Brightness Sun altitude
Rises 17:35:55 0° 329° (NNW) 3,167 6.9 -16.9°
Reaches altitude 10° 17:38:23 10° 336° (NNW) 2,254 6.0 -17.3°
Maximum altitude 17:43:20 45° 49° (NE) 1,019 3.7 -18.2°
Enters shadow 17:45:07 33° 96° (E) 1,251 4.1 -18.5°
